User: anonymous
Location: Unspecified
(0.0000°N, 0.0000°E)
Time: 14:15:48
(UTC+00:00)
Language:

AMOS 1 - Orbit

View from above orbital plane
View from above orbital plane
View from above satellite
View from above satellite

Ground track
Ground track

The orbit data is extracted from the following two-line orbital elements,

1 23865U 96030B   14272.01415906 -.00000049  00000-0  00000+0 0  1696
2 23865 005.2628 061.3971 0013334 093.9966 297.7884 00.97116279 67013
Epoch (UTC): 29 September 2014 00:20:23
Eccentricity: 0.0013334
inclination: 5.2628°
perigee height: 36637 km
apogee height: 36752 km
right ascension of ascending node: 61.3971°
argument of perigee: 93.9966°
revolutions per day: 0.97116279
mean anomaly at epoch: 297.7884°
orbit number at epoch: 6701

The dashed part of the orbit path shows where the satellite is in the earth's shadow,  

DLR